Location: Newark
(48.6461°N, 4.3644°W)
Time: 03:20:13
(UTC+00:00)

Transit 4A - Pass Details

Date: 27 January 2020
Orbit: 872 x 973 km, 66.8° (Epoch: 16 February)

Event Time Altitude Azimuth Distance (km) Brightness Sun altitude
Rises 15:20:09 0° 322° (NW) 3,473 10.8 12.9°
Reaches altitude 10° 15:22:40 10° 318° (NW) 2,530 10.2 12.7°
Maximum altitude 15:28:21 56° 242° (WSW) 1,033 9.0 12.0°
Drops below altitude 10° 15:34:03 10° 165° (SSE) 2,536 10.7 11.4°
Sets 15:36:35 0° 162° (SSE) 3,483 11.3 11.1°
